Temperature
23 23 23 24 25 25 25 25 26 27 29 28 27 27 28 28 28 27 27 27 26 26 25 25 24 23 23 22 21 21 20 20 19 19 19 19 19 19 18 18 18 18 18 18
24 23 25 25 26 25 25 25 25 27 28 27 27 26 27 27 26 24 24 23 23 23 23 23 23 22 22 21 20 20 20 19 19 19 19 19 19 19 19 18 18 18 18 18
23 24 25 25 25 24 24 25 25 26 27 27 26 25 26 25 24 23 22 21 20 19 20 20 21 21 21 20 20 19 19 19 19 19 19 19 19 18 18 18 18 18 18 18
24 25 25 24 24 24 24 26 26 26 25 25 26 23 24 24 23 22 20 19 18 18 18 18 18 19 19 19 19 19 19 19 19 19 18 18 18 18 18 18 18 18 18 17
24 25 24 24 24 25 25 26 26 26 25 25 25 23 22 23 21 20 19 18 17 16 16 16 17 17 18 18 18 18 18 18 18 18 18 18 18 18 18 17 17 17 17 16
24 25 25 25 25 26 26 25 25 25 25 24 25 24 21 21 20 19 18 16 15 15 15 15 15 16 17 17 17 17 17 18 18 18 18 17 17 17 17 17 16 16 16 15
21 23 25 25 24 25 25 24 23 23 23 24 26 24 19 19 19 18 16 15 14 14 14 14 14 14 15 15 16 16 16 16 17 17 17 16 16 16 16 16 15 15 15 14
19 20 23 25 24 24 24 24 22 22 23 24 25 23 19 18 18 16 15 14 13 13 13 13 13 13 13 14 14 15 15 15 15 15 15 15 15 15 15 14 14 14 13 13
18 19 22 24 25 25 24 24 25 23 23 22 22 19 18 18 17 16 15 13 12 12 12 12 12 12 12 13 13 13 14 14 14 14 14 14 14 14 14 13 13 12 12 12
19 18 21 24 25 25 25 25 24 23 21 20 20 20 18 17 17 16 14 13 12 11 11 11 11 11 11 11 12 12 12 12 12 13 13 13 12 12 12 12 11 11 10 10
19 18 20 23 24 24 24 24 24 24 23 20 18 18 19 17 16 15 13 12 11 11 11 11 10 11 10 10 10 11 11 11 11 11 11 11 11 11 11 10 10 9 9 9
19 18 18 20 23 25 25 25 24 23 23 23 20 16 16 16 15 14 12 11 10 10 10 10 10 10 10 9 9 9 9 10 10 10 10 10 10 9 9 9 8 8 8 7
20 17 17 19 22 23 24 24 25 24 23 23 20 16 15 14 13 12 11 10 10 10 10 9 9 9 9 9 9 9 9 9 8 9 9 9 8 8 8 7 7 7 7 7
20 17 16 16 18 19 21 23 24 24 23 21 19 16 14 13 13 11 11 10 10 9 9 9 8 8 8 8 8 8 8 8 8 8 8 7 7 7 7 6 6 6 6 6
21 17 17 18 19 19 21 22 23 23 22 20 17 16 14 13 12 11 10 10 9 9 8 8 8 8 7 7 7 7 7 7 7 7 7 6 6 6 6 6 5 5 5 5
22 19 19 19 21 22 22 22 22 22 21 19 17 15 13 12 11 11 10 9 9 8 8 8 7 7 7 7 7 7 7 6 6 6 6 6 6 5 5 5 5 5 4 4
22 20 19 20 22 22 20 21 21 20 19 19 17 14 13 12 11 10 10 9 8 8 8 7 7 7 7 7 7 6 6 6 6 6 5 5 5 5 5 5 4 4 4 4
22 21 20 20 20 18 19 21 21 19 18 17 15 14 13 11 10 9 9 9 8 8 8 7 7 7 7 7 6 6 6 6 6 6 5 5 5 5 5 4 4 4 4 4
22 21 21 20 19 18 19 21 21 19 16 16 14 13 11 10 9 9 9 8 8 8 7 7 7 7 7 6 6 6 6 6 6 6 5 5 5 5 5 5 4 4 4 4
23 22 21 21 19 17 18 20 20 19 15 15 14 13 12 12 11 8 8 8 7 7 7 7 7 7 6 6 6 6 6 6 6 5 5 5 5 5 5 5 5 5 5 5
22 22 21 21 19 18 19 20 20 17 15 15 14 13 12 12 11 8 8 7 7 7 7 7 7 6 6 6 6 6 6 6 6 5 5 5 5 5 5 5 5 5 5 5
22 21 21 20 18 16 19 19 17 15 15 14 13 12 11 10 8 8 7 7 7 7 7 6 6 6 6 6 6 6 6 6 6 5 5 5 5 5 5 5 5 5 5 5
22 20 20 19 17 17 17 17 16 15 14 13 12 11 10 9 8 8 7 7 7 7 7 6 6 6 6 6 6 6 6 6 6 5 5 5 5 5 5 5 5 5 5 5
21 21 20 18 18 17 17 16 15 14 14 13 11 10 10 9 8 8 7 7 7 7 7 7 6 6 6 6 6 6 6 6 6 5 5 5 5 5 5 5 5 5 5 4
21 21 20 18 18 17 16 15 15 14 13 12 11 10 9 9 8 8 7 7 7 7 7 7 6 6 6 6 6 6 6 6 6 6 6 6 6 5 5 5 5 4 4 4
22 21 20 19 18 17 16 15 14 13 13 12 11 10 9 9 8 8 8 7 7 7 7 7 7 7 6 6 6 6 6 6 6 6 6 6 6 6 5 5 5 4 4 4
Wind_Speed
12 12 13 13 15 17 17 15 14 10 10 13 13 11 6 3 3 5 7 7 7 6 8 11 11 13 13 12 11 10 9 9 9 8 8 7 6 4 4 3 5 7 7 7
13 15 13 12 11 11 14 13 11 4 7 8 9 9 5 3 7 9 8 7 7 6 9 10 11 10 10 10 10 9 8 9 8 7 6 6 6 5 5 3 4 6 6 6
14 9 8 9 10 10 12 12 11 9 6 9 7 8 7 6 9 10 10 12 14 12 11 10 10 9 9 7 6 7 6 6 7 7 5 5 4 4 4 4 3 3 5 4
13 11 9 10 11 11 12 12 11 11 9 9 11 8 9 9 8 9 11 13 14 14 14 12 11 11 9 7 5 5 4 4 4 4 5 6 6 6 5 3 4 4 4 3
12 10 9 11 12 13 13 11 11 12 12 11 11 8 8 10 9 9 11 13 13 13 14 14 13 12 11 10 8 7 7 5 3 2 2 3 3 2 2 3 5 5 5 5
15 13 10 10 10 11 11 10 10 12 12 15 15 12 7 6 9 11 12 14 14 14 14 15 16 15 15 14 12 10 9 9 7 5 4 3 2 2 3 4 5 6 6 6
12 14 13 11 11 11 11 10 8 10 12 15 15 9 7 10 11 14 15 14 14 14 14 15 16 16 16 16 14 12 12 12 11 11 9 9 8 7 7 6 7 8 7 7
7 11 10 10 12 10 12 15 12 6 7 9 12 7 10 15 16 16 16 15 15 14 14 15 15 14 15 16 16 15 15 15 14 14 14 13 12 10 10 12 11 10 9 9
3 7 10 11 11 12 13 14 13 11 11 9 2 8 10 15 16 17 16 15 15 14 14 15 15 15 15 16 16 16 17 17 17 17 17 17 16 16 16 15 14 12 11 11
3 6 10 10 10 13 12 11 9 10 6 6 4 8 10 17 17 17 16 15 15 15 14 14 14 15 15 15 15 17 18 18 17 17 16 16 17 17 16 16 17 15 14 14
4 6 8 6 8 10 10 11 10 9 6 5 5 3 4 15 17 17 16 15 14 14 14 13 13 14 15 15 16 16 16 17 17 17 17 18 17 17 17 17 16 15 14 14
1 3 6 8 9 9 8 8 8 7 7 5 2 3 8 14 16 17 17 16 15 14 14 14 14 14 14 15 15 15 15 16 16 16 17 17 17 17 17 16 15 14 14 12
2 2 4 5 4 4 5 6 6 7 7 7 3 6 11 16 16 16 16 15 14 14 14 13 13 13 14 14 14 15 15 16 15 16 16 16 16 16 16 15 13 13 12 12
2 0 2 4 5 5 6 5 5 6 6 5 4 11 13 16 16 15 15 14 14 13 13 13 13 12 12 13 13 14 14 14 14 15 15 15 14 14 13 12 11 11 10 10
1 1 4 6 9 8 4 3 5 6 7 4 8 10 11 14 15 15 15 15 14 14 13 13 12 11 11 12 12 12 13 13 13 14 14 13 12 11 11 10 9 8 8 8
2 3 5 6 7 4 3 6 7 9 10 11 12 9 12 15 14 14 14 15 14 13 13 12 12 11 11 11 11 11 11 11 11 12 12 11 10 10 9 8 7 7 6 6
4 3 5 4 2 1 5 8 8 10 10 7 6 8 15 14 13 13 13 14 14 13 12 11 11 10 9 9 10 10 10 10 10 10 10 10 9 9 7 7 6 6 5 5
5 6 4 4 3 1 4 5 7 10 11 12 15 15 13 14 13 11 11 13 14 13 12 11 10 10 9 9 9 9 9 9 9 9 9 9 8 8 6 5 5 4 4 4
2 4 5 3 2 5 5 6 5 5 8 11 15 15 15 17 15 10 9 11 12 12 11 10 9 9 9 8 7 8 8 8 9 9 8 7 7 7 5 5 5 3 3 2
1 3 5 4 3 2 5 6 4 5 6 9 13 14 15 14 8 7 10 12 12 11 10 10 9 9 8 7 6 7 8 8 8 8 8 7 6 6 6 5 4 2 2 2
3 3 4 4 2 6 6 4 3 2 4 8 10 11 11 6 8 14 14 12 11 11 10 9 9 8 7 6 6 7 7 7 7 7 7 6 5 4 5 3 3 3 3 3
5 5 4 4 3 5 8 5 6 7 10 10 11 12 14 17 19 17 14 13 12 11 10 9 9 8 7 6 6 7 7 6 6 6 5 4 3 3 4 2 2 3 4 3
4 6 5 6 7 7 10 11 10 11 12 13 14 16 18 19 17 16 14 12 11 10 9 9 9 9 7 6 5 7 6 5 5 5 3 3 3 2 2 3 3 3 3 4
5 4 6 7 9 10 11 12 12 12 13 14 16 17 17 17 16 15 13 11 10 10 9 8 8 8 7 7 6 6 5 4 4 3 2 1 1 1 2 3 5 5 6 7
6 3 5 9 11 11 11 12 13 14 15 16 16 16 16 17 16 14 12 11 10 9 8 8 7 8 8 8 7 6 4 3 3 1 0 0 0 1 2 4 5 6 6 5
4 4 3 6 11 10 12 12 14 14 15 16 16 16 16 15 14 13 12 10 10 10 9 8 8 8 8 7 6 5 4 3 1 0 1 1 0 0 2 5 5 9 7 6
Wind_Direction
235 240 246 242 237 253 278 287 280 240 170 192 205 217 224 210 172 181 194 199 186 169 138 134 134 135 137 138 147 160 176 165 167 177 185 194 202 195 186 183 174 174 185 196
247 242 255 264 266 262 270 273 274 257 156 193 200 196 180 123 87 68 69 64 71 81 91 97 108 115 124 136 149 161 175 174 179 181 185 188 193 193 190 185 168 172 177 185
255 261 265 265 262 258 258 259 262 257 216 203 206 200 175 125 92 77 64 58 57 46 51 72 79 86 105 112 132 163 168 171 182 183 181 189 185 190 198 178 161 148 151 166
269 260 254 250 250 247 248 247 257 262 241 211 205 203 182 143 110 88 71 60 56 49 40 47 52 56 58 68 86 88 106 126 153 173 191 200 201 203 198 166 147 138 122 118
270 265 251 248 243 240 250 255 247 250 250 253 225 217 188 161 142 104 81 71 64 61 52 45 42 43 40 42 55 67 74 73 87 124 156 183 205 194 156 127 123 101 75 70
280 275 255 249 249 244 248 256 249 248 247 244 236 225 173 165 145 122 92 74 66 62 57 50 43 41 37 38 46 51 57 53 51 64 68 79 90 91 107 113 108 88 69 55
284 271 250 243 241 230 233 238 228 223 226 235 226 219 124 103 109 110 99 84 72 65 59 52 46 42 40 38 41 48 56 53 52 57 57 58 67 72 79 85 85 84 72 61
294 280 250 227 227 221 220 234 238 248 249 248 214 176 136 125 114 107 103 93 80 70 63 58 53 51 48 45 44 50 55 56 55 58 58 57 60 68 68 68 73 72 72 68
284 281 273 258 228 235 218 230 244 261 274 279 223 114 129 131 125 119 110 99 87 76 68 64 60 57 56 53 52 54 58 59 58 60 63 62 63 70 74 73 72 72 71 72
299 289 269 255 231 233 245 237 242 246 259 264 238 187 167 156 141 124 111 101 92 84 75 69 66 64 62 61 62 62 63 65 64 65 67 70 68 71 74 76 76 76 74 74
317 296 290 266 231 224 231 239 249 263 240 240 224 253 167 150 138 122 111 102 95 89 81 76 72 70 69 67 66 67 68 70 70 70 72 73 73 74 75 75 76 76 74 73
274 307 292 274 264 265 235 249 248 270 291 280 211 95 101 122 122 115 110 103 96 91 87 81 77 73 71 70 70 71 72 73 74 76 78 78 79 78 78 77 75 75 75 72
15 346 309 280 253 253 240 249 273 281 292 305 316 119 110 111 110 109 109 105 101 97 91 85 79 75 73 73 73 73 74 76 78 79 81 80 79 79 79 79 78 76 76 73
188 351 289 274 279 284 281 281 294 302 303 331 77 126 124 120 116 113 112 109 105 99 95 90 85 82 82 80 79 80 79 80 82 82 81 80 80 81 82 82 82 81 80 79
282 306 259 243 245 242 258 346 2 357 12 42 107 124 130 129 125 123 120 116 110 106 101 96 93 90 88 86 85 85 85 85 86 87 86 86 87 87 86 85 85 86 86 87
341 287 246 252 231 209 74 41 35 34 52 90 104 100 117 118 120 123 124 122 117 113 108 105 102 99 95 95 94 93 92 92 92 92 93 94 93 91 91 93 94 93 92 91
327 315 305 290 261 111 57 33 38 54 50 66 92 114 122 119 121 125 128 125 122 119 116 112 109 105 104 103 104 103 103 102 99 98 99 100 99 97 98 98 96 93 93 93
323 323 305 311 328 49 87 68 68 72 61 78 103 115 116 115 111 110 120 125 125 124 121 117 114 109 106 105 106 110 110 109 106 104 103 102 101 99 98 94 92 90 86 83
349 322 311 335 34 104 83 49 39 77 83 98 114 117 118 117 105 93 103 116 121 121 119 118 116 115 114 114 115 112 108 107 106 102 101 100 98 96 90 84 82 76 73 74
229 266 288 322 350 82 77 51 46 99 104 114 127 134 142 144 126 122 120 116 115 115 117 118 117 117 115 115 114 109 107 105 102 101 97 92 86 82 76 67 60 47 22 26
282 272 306 332 43 84 38 21 350 20 120 129 132 141 150 147 120 131 128 120 119 119 121 123 119 116 118 121 117 113 109 104 103 105 104 102 99 95 85 61 28 3 7 16
340 344 359 358 50 68 17 37 58 94 113 116 116 118 114 111 118 127 127 126 127 125 124 123 120 120 124 127 123 115 109 108 106 102 100 100 91 81 79 48 3 355 350 358
37 34 32 50 81 82 65 81 96 108 112 114 116 118 121 124 128 130 131 131 131 131 130 130 127 125 124 123 118 114 110 108 107 107 103 88 74 54 28 356 1 8 7 16
110 81 106 108 110 104 97 98 100 104 110 116 122 126 128 129 132 133 134 135 137 137 138 138 135 132 130 129 123 116 114 113 113 117 123 141 141 82 52 26 22 33 27 22
100 126 113 117 125 118 108 109 111 112 115 119 123 126 130 133 135 136 137 140 141 142 139 137 134 131 130 132 133 132 126 124 118 131 192 244 115 99 96 79 53 52 60 51
106 111 148 152 150 139 130 124 122 123 122 124 125 127 131 133 136 136 135 136 136 133 133 133 132 131 134 135 135 138 143 140 133 271 300 300 206 150 140 128 105 64 86 92
Height
1480 1481 1477 1471 1468 1466 1462 1460 1455 1445 1440 1449 1455 1456 1454 1452 1454 1456 1460 1463 1467 1471 1474 1478 1484 1488 1494 1500 1505 1510 1515 1519 1522 1525 1529 1532 1535 1537 1540 1542 1544 1546 1547 1549
1476 1475 1468 1464 1462 1462 1462 1462 1457 1449 1444 1450 1454 1456 1454 1455 1459 1463 1464 1465 1468 1471 1474 1478 1481 1488 1494 1500 1504 1508 1512 1516 1519 1522 1525 1529 1531 1534 1536 1538 1540 1542 1543 1545
1472 1468 1465 1464 1464 1466 1464 1462 1459 1455 1449 1450 1456 1461 1458 1459 1463 1467 1469 1472 1472 1478 1477 1479 1484 1488 1493 1498 1502 1507 1510 1513 1516 1519 1523 1525 1527 1530 1532 1534 1535 1538 1539 1541
1466 1462 1463 1464 1465 1464 1466 1456 1456 1456 1458 1458 1457 1473 1466 1463 1468 1472 1476 1478 1480 1483 1481 1481 1486 1489 1494 1498 1501 1504 1507 1510 1513 1516 1519 1521 1523 1525 1527 1530 1531 1533 1535 1537
1465 1461 1462 1464 1462 1460 1459 1453 1455 1455 1457 1460 1457 1469 1472 1468 1474 1478 1481 1485 1488 1488 1488 1489 1491 1493 1495 1497 1500 1502 1505 1508 1510 1513 1515 1517 1520 1522 1525 1526 1527 1529 1531 1532
1464 1460 1459 1458 1457 1456 1455 1455 1455 1455 1457 1469 1458 1464 1479 1474 1477 1481 1486 1490 1492 1493 1493 1494 1495 1495 1496 1498 1500 1502 1504 1506 1508 1510 1513 1515 1516 1519 1521 1522 1523 1524 1527 1528
1471 1461 1456 1456 1457 1456 1457 1465 1473 1473 1471 1465 1449 1459 1482 1478 1479 1484 1490 1494 1497 1498 1498 1498 1499 1499 1499 1500 1501 1502 1503 1504 1507 1509 1511 1512 1514 1515 1517 1518 1520 1521 1523 1524
1484 1476 1458 1453 1455 1456 1458 1461 1473 1479 1473 1457 1446 1463 1481 1479 1483 1489 1493 1497 1499 1501 1501 1502 1503 1503 1504 1504 1504 1504 1505 1506 1507 1508 1509 1511 1512 1513 1515 1516 1518 1520 1522 1523
1483 1478 1457 1452 1449 1450 1455 1456 1453 1464 1468 1470 1466 1477 1484 1481 1487 1492 1497 1500 1502 1504 1505 1506 1507 1507 1507 1507 1507 1507 1508 1508 1509 1509 1510 1511 1512 1513 1515 1517 1518 1520 1522 1523
1474 1478 1462 1452 1448 1447 1446 1447 1453 1460 1477 1485 1479 1476 1482 1485 1488 1494 1499 1503 1505 1507 1509 1510 1511 1511 1511 1512 1512 1511 1511 1511 1512 1512 1512 1512 1513 1514 1516 1518 1520 1521 1523 1524
1473 1479 1467 1455 1451 1450 1449 1449 1449 1450 1458 1479 1492 1488 1473 1481 1488 1495 1502 1506 1508 1511 1513 1514 1515 1516 1516 1517 1516 1515 1516 1515 1515 1515 1515 1515 1516 1517 1518 1520 1521 1523 1525 1526
1473 1479 1476 1463 1450 1444 1444 1444 1446 1457 1458 1455 1473 1493 1480 1483 1490 1497 1504 1509 1512 1514 1516 1518 1519 1520 1521 1521 1520 1520 1520 1519 1519 1519 1519 1520 1521 1521 1522 1524 1526 1527 1528 1529
1472 1481 1485 1473 1461 1450 1447 1444 1443 1445 1450 1455 1470 1495 1488 1490 1497 1503 1508 1512 1515 1517 1519 1521 1522 1523 1524 1525 1525 1525 1524 1524 1524 1525 1525 1525 1525 1526 1527 1529 1531 1532 1532 1532
1469 1479 1489 1490 1479 1468 1459 1450 1446 1448 1455 1461 1474 1489 1494 1497 1503 1508 1512 1515 1518 1521 1522 1524 1525 1527 1528 1529 1529 1529 1529 1530 1530 1530 1530 1530 1531 1532 1533 1534 1535 1536 1536 1536
1465 1479 1479 1476 1469 1466 1459 1455 1452 1454 1457 1469 1480 1488 1495 1500 1505 1511 1515 1519 1522 1524 1526 1528 1530 1531 1532 1532 1533 1534 1534 1534 1535 1535 1535 1535 1536 1537 1538 1538 1539 1539 1540 1540
1463 1470 1472 1469 1462 1458 1459 1457 1457 1461 1464 1473 1483 1494 1499 1503 1508 1513 1518 1521 1523 1526 1529 1531 1533 1534 1535 1536 1537 1538 1538 1539 1540 1540 1540 1540 1541 1542 1542 1543 1543 1544 1544 1544
1460 1467 1471 1469 1457 1458 1471 1467 1466 1469 1473 1477 1487 1497 1502 1507 1512 1516 1519 1522 1525 1528 1530 1533 1535 1536 1538 1539 1540 1541 1542 1543 1544 1544 1545 1545 1545 1546 1547 1547 1547 1547 1547 1547
1463 1464 1466 1465 1468 1483 1478 1467 1469 1475 1481 1484 1491 1500 1505 1510 1515 1519 1521 1524 1527 1530 1532 1535 1537 1538 1540 1542 1543 1544 1545 1546 1547 1548 1549 1549 1550 1550 1550 1551 1551 1550 1550 1550
1462 1465 1466 1467 1477 1482 1476 1471 1472 1479 1490 1493 1498 1504 1509 1514 1518 1523 1525 1527 1529 1531 1534 1536 1539 1541 1543 1544 1546 1547 1548 1550 1551 1552 1552 1553 1553 1554 1554 1554 1554 1553 1553 1552
1460 1461 1465 1467 1478 1488 1483 1475 1476 1481 1496 1498 1501 1505 1510 1513 1517 1526 1528 1529 1532 1534 1536 1539 1541 1543 1545 1547 1548 1550 1551 1552 1553 1554 1555 1556 1556 1556 1556 1556 1556 1555 1555 1554
1462 1461 1464 1468 1476 1484 1480 1478 1478 1491 1500 1500 1503 1506 1509 1512 1517 1525 1528 1531 1534 1537 1539 1541 1544 1546 1548 1549 1551 1552 1554 1555 1556 1557 1557 1558 1558 1558 1558 1558 1558 1557 1556 1555
1464 1465 1466 1469 1481 1494 1483 1481 1488 1496 1497 1501 1505 1508 1512 1515 1520 1525 1530 1533 1536 1539 1542 1544 1546 1548 1550 1552 1553 1554 1556 1557 1558 1559 1560 1560 1560 1560 1560 1559 1559 1558 1556 1555
1465 1472 1472 1479 1490 1491 1490 1491 1495 1497 1501 1505 1508 1512 1515 1519 1524 1528 1532 1536 1539 1541 1544 1546 1548 1550 1552 1554 1555 1556 1558 1559 1560 1561 1561 1561 1561 1561 1561 1560 1559 1558 1557 1556
1468 1470 1474 1482 1488 1491 1494 1496 1499 1501 1505 1508 1512 1515 1519 1523 1527 1531 1535 1538 1541 1543 1546 1548 1550 1552 1554 1555 1557 1558 1559 1560 1561 1562 1562 1562 1562 1562 1561 1560 1560 1558 1557 1556
1468 1471 1475 1483 1489 1493 1497 1500 1503 1506 1509 1512 1516 1519 1522 1526 1530 1533 1537 1540 1543 1545 1548 1550 1552 1554 1555 1557 1558 1559 1561 1561 1562 1562 1563 1562 1562 1562 1561 1560 1560 1558 1557 1556
1467 1471 1476 1481 1487 1491 1498 1502 1505 1509 1512 1515 1519 1523 1526 1529 1533 1536 1539 1542 1545 1547 1550 1552 1554 1556 1557 1558 1560 1561 1561 1562 1563 1563 1563 1562 1562 1561 1561 1560 1559 1558 1557 1556